When you browse on this site, cookies collect data to enhance your experience and personalize the content and advertising you see.
Visit our Privacy Policy to learn more. By continuing to use the site, you agree to this use of cookies and data.
  • In Hungary
  • List of Countries
  • For 7 days
  • Water Temperature
  • Satellite Maps
  • Weather Map
  • News
  • Weather Widgets
  • user-avatar
    Login

    Hourly Weather Newark

    Today, 18 July, Thursday

    Time Temperature Precipitation Wind Pressure Humidity
    00:00 +20°C° 0 mm 1 mps 758 mmHg 72%
    01:00 +19°C° 0 mm 2 mps 758 mmHg 73%
    02:00 +18°C° 0 mm 2 mps 758 mmHg 75%
    03:00 +18°C° 0 mm 2 mps 758 mmHg 77%
    04:00 +17°C° 0 mm 2 mps 758 mmHg 80%
    05:00 +18°C° 0 mm 2 mps 759 mmHg 76%
    06:00 +19°C° 0 mm 2 mps 759 mmHg 72%
    07:00 +20°C° 0 mm 2 mps 759 mmHg 69%
    08:00 +23°C° 0 mm 2 mps 759 mmHg 61%
    09:00 +25°C° 0 mm 2 mps 759 mmHg 53%
    10:00 +28°C° 0 mm 2 mps 759 mmHg 44%
    11:00 +29°C° 0 mm 2 mps 759 mmHg 43%
    12:00 +30°C° 0 mm 3 mps 758 mmHg 42%
    13:00 +31°C° 0 mm 3 mps 758 mmHg 40%
    14:00 +30°C° 0 mm 3 mps 758 mmHg 44%
    15:00 +29°C° 0 mm 3 mps 758 mmHg 48%
    16:00 +27°C° 0 mm 4 mps 757 mmHg 52%
    17:00 +25°C° 0 mm 3 mps 757 mmHg 59%
    18:00 +22°C° 0 mm 3 mps 757 mmHg 66%
    19:00 +21°C° 0 mm 2 mps 757 mmHg 73%
    20:00 +20°C° 0 mm 2 mps 757 mmHg 77%
    21:00 +19°C° 0 mm 2 mps 757 mmHg 81%
    22:00 +18°C° 0 mm 2 mps 757 mmHg 84%
    23:00 +17°C° 0 mm 2 mps 757 mmHg 85%

    Tomorrow, 19 July, Friday

    Time Temperature Precipitation Wind Pressure Humidity
    00:00 +17°C° 0 mm 2 mps 757 mmHg 86%
    01:00 +17°C° 0 mm 2 mps 757 mmHg 87%
    02:00 +17°C° 0 mm 2 mps 757 mmHg 87%
    03:00 +16°C° 0 mm 2 mps 757 mmHg 88%
    04:00 +16°C° 0 mm 2 mps 757 mmHg 88%
    05:00 +17°C° 0 mm 2 mps 757 mmHg 84%
    06:00 +18°C° 0 mm 2 mps 757 mmHg 79%
    07:00 +18°C° 0 mm 2 mps 758 mmHg 74%
    08:00 +21°C° 0 mm 2 mps 758 mmHg 65%
    09:00 +24°C° 0 mm 2 mps 758 mmHg 55%
    10:00 +27°C° 0 mm 2 mps 758 mmHg 45%
    11:00 +28°C° 0 mm 2 mps 758 mmHg 41%
    12:00 +30°C° 0 mm 2 mps 757 mmHg 37%
    13:00 +31°C° 0 mm 3 mps 757 mmHg 33%
    14:00 +30°C° 0 mm 3 mps 757 mmHg 35%
    15:00 +30°C° 0 mm 3 mps 757 mmHg 37%
    16:00 +29°C° 0 mm 3 mps 756 mmHg 38%
    17:00 +27°C° 0 mm 3 mps 756 mmHg 46%
    18:00 +25°C° 0 mm 2 mps 756 mmHg 54%
    19:00 +23°C° 0 mm 2 mps 756 mmHg 61%
    20:00 +20°C° 0 mm 2 mps 757 mmHg 67%
    21:00 +19°C° 0 mm 2 mps 757 mmHg 73%
    22:00 +17°C° 0 mm 2 mps 757 mmHg 79%
    23:00 +17°C° 0 mm 2 mps 757 mmHg 80%

    Day after tomorrow, 20 July, Saturday

    Time Temperature Precipitation Wind Pressure Humidity
    00:00 +16°C° 0 mm 2 mps 757 mmHg 81%
    01:00 +16°C° 0 mm 2 mps 757 mmHg 82%
    02:00 +16°C° 0 mm 2 mps 757 mmHg 82%
    03:00 +16°C° 0 mm 1 mps 757 mmHg 83%
    04:00 +15°C° 0 mm 1 mps 757 mmHg 84%
    05:00 +16°C° 0 mm 1 mps 757 mmHg 80%
    06:00 +18°C° 0 mm 1 mps 758 mmHg 75%
    07:00 +19°C° 0 mm 1 mps 758 mmHg 70%
    08:00 +22°C° 0 mm 1 mps 758 mmHg 61%
    09:00 +24°C° 0 mm 1 mps 758 mmHg 52%
    10:00 +27°C° 0 mm 2 mps 758 mmHg 44%
    11:00 +28°C° 0 mm 2 mps 758 mmHg 41%
    12:00 +29°C° 0 mm 3 mps 757 mmHg 39%
    13:00 +30°C° 0 mm 3 mps 757 mmHg 36%
    14:00 +30°C° 0 mm 3 mps 757 mmHg 37%
    15:00 +30°C° 0 mm 3 mps 757 mmHg 39%
    16:00 +29°C° 0 mm 3 mps 756 mmHg 40%
    17:00 +27°C° 0 mm 3 mps 756 mmHg 47%
    18:00 +25°C° 0 mm 2 mps 756 mmHg 54%
    19:00 +23°C° 0 mm 2 mps 756 mmHg 61%
    20:00 +20°C° 0 mm 2 mps 757 mmHg 67%
    21:00 +20°C° 0 mm 1 mps 757 mmHg 72%
    22:00 +19°C° 0 mm 1 mps 757 mmHg 77%
    23:00 +18°C° 0 mm 1 mps 757 mmHg 78%

    21 July, Sunday

    Time Temperature Precipitation Wind Pressure Humidity
    00:00 +18°C° 0 mm 1 mps 757 mmHg 79%
    01:00 +18°C° 0 mm 1 mps 757 mmHg 79%
    02:00 +18°C° 0 mm 1 mps 757 mmHg 80%
    03:00 +16°C° 0 mm 1 mps 757 mmHg 80%
    04:00 +16°C° 0 mm 1 mps 757 mmHg 80%
    05:00 +18°C° 0 mm 1 mps 757 mmHg 75%
    06:00 +19°C° 0 mm 1 mps 758 mmHg 70%
    07:00 +20°C° 0 mm 1 mps 758 mmHg 65%
    08:00 +23°C° 0 mm 1 mps 758 mmHg 57%
    09:00 +26°C° 0 mm 1 mps 758 mmHg 48%
    10:00 +28°C° 0 mm 1 mps 758 mmHg 40%
    11:00 +30°C° 0 mm 2 mps 758 mmHg 38%
    12:00 +31°C° 0 mm 2 mps 758 mmHg 36%
    13:00 +33°C° 0 mm 3 mps 758 mmHg 34%
    14:00 +31°C° 0 mm 3 mps 757 mmHg 36%
    15:00 +30°C° 0 mm 3 mps 757 mmHg 39%
    16:00 +29°C° 0 mm 3 mps 757 mmHg 42%
    17:00 +27°C° 0 mm 3 mps 757 mmHg 48%
    18:00 +25°C° 0 mm 2 mps 757 mmHg 54%
    19:00 +23°C° 0 mm 2 mps 757 mmHg 61%
    20:00 +21°C° 0 mm 2 mps 757 mmHg 65%
    21:00 +19°C° 0 mm 2 mps 758 mmHg 70%
    22:00 +19°C° 0 mm 1 mps 758 mmHg 74%
    23:00 +18°C° 0 mm 1 mps 758 mmHg 76%

    22 July, Monday

    Time Temperature Precipitation Wind Pressure Humidity
    00:00 +18°C° 0 mm 1 mps 758 mmHg 79%
    01:00 +16°C° 0 mm 1 mps 758 mmHg 81%
    02:00 +16°C° 0 mm 1 mps 758 mmHg 81%
    03:00 +16°C° 0 mm 1 mps 758 mmHg 81%
    04:00 +16°C° 0 mm 1 mps 758 mmHg 81%
    05:00 +18°C° 0 mm 1 mps 759 mmHg 76%
    06:00 +19°C° 0 mm 1 mps 759 mmHg 72%
    07:00 +20°C° 0 mm 1 mps 759 mmHg 68%
    08:00 +22°C° 0 mm 1 mps 759 mmHg 60%
    09:00 +25°C° 0 mm 1 mps 760 mmHg 52%
    10:00 +27°C° 0 mm 1 mps 760 mmHg 43%
    11:00 +28°C° 0 mm 2 mps 759 mmHg 41%
    12:00 +29°C° 0 mm 3 mps 759 mmHg 40%
    13:00 +31°C° 0 mm 3 mps 759 mmHg 38%
    14:00 +29°C° 0 mm 4 mps 759 mmHg 42%
    15:00 +27°C° 0 mm 4 mps 759 mmHg 47%
    16:00 +26°C° 0 mm 4 mps 758 mmHg 52%
    17:00 +23°C° 0 mm 4 mps 759 mmHg 59%
    18:00 +21°C° 0 mm 3 mps 759 mmHg 67%
    19:00 +19°C° 0 mm 3 mps 759 mmHg 74%
    20:00 +18°C° 0 mm 2 mps 760 mmHg 77%
    21:00 +18°C° 0 mm 2 mps 760 mmHg 79%
    22:00 +17°C° 0 mm 2 mps 760 mmHg 82%
    23:00 +17°C° 0 mm 2 mps 760 mmHg 83%

    23 July, Tuesday

    Time Temperature Precipitation Wind Pressure Humidity
    00:00 +16°C° 0 mm 2 mps 760 mmHg 85%
    01:00 +16°C° 0 mm 2 mps 760 mmHg 86%
    02:00 +16°C° 0 mm 2 mps 760 mmHg 86%
    03:00 +16°C° 0 mm 2 mps 760 mmHg 87%
    04:00 +16°C° 0 mm 1 mps 760 mmHg 87%
    05:00 +16°C° 0 mm 1 mps 761 mmHg 84%
    06:00 +18°C° 0 mm 1 mps 761 mmHg 81%
    07:00 +19°C° 0 mm 1 mps 761 mmHg 78%
    08:00 +20°C° 0 mm 2 mps 761 mmHg 68%
    09:00 +23°C° 0 mm 2 mps 761 mmHg 59%
    10:00 +25°C° 0 mm 2 mps 761 mmHg 49%
    11:00 +26°C° 0 mm 3 mps 761 mmHg 46%
    12:00 +27°C° 0 mm 3 mps 761 mmHg 43%
    13:00 +28°C° 0 mm 4 mps 760 mmHg 41%
    14:00 +27°C° 0 mm 4 mps 760 mmHg 43%
    15:00 +26°C° 0 mm 4 mps 760 mmHg 46%
    16:00 +25°C° 0 mm 4 mps 759 mmHg 49%
    17:00 +22°C° 0 mm 4 mps 760 mmHg 56%
    18:00 +20°C° 0 mm 3 mps 760 mmHg 63%
    19:00 +18°C° 0 mm 3 mps 760 mmHg 70%
    20:00 +17°C° 0 mm 2 mps 760 mmHg 73%
    21:00 +16°C° 0 mm 2 mps 760 mmHg 76%
    22:00 +15°C° 0 mm 2 mps 761 mmHg 79%
    23:00 +15°C° 0 mm 2 mps 761 mmHg 80%
    Show more